Torna al catalogo

BREEZE-M DEB

TANK

AttivoHEO
NORAD 36794·DEBRIS·🇷🇺 Russia

Lanciato Jul 10, 2010 da Baikonur Cosmodrome

Loading…

Prossimi Passaggi (prossime 24 ore)

TLE

AggiornatoSource: Space-Track

Epoca: Sep 14, 2026, 00:27 UTC

1 36794U 10034C   26257.01930041  .00005182  00000-0  12336-2 0  9990
2 36794  49.4726 156.2145 5392593 184.2147 168.2961  4.96005282280010

Traccia BREEZE-M DEB in tempo reale con AllMySat

Download on the App Store